Weather in Padany

Russia / Republic of Karelia     63°17′11″N   33°24′57″E
temp.,
°C
wind,
m/s
gust,
m/s
humid.,
%
clouds,
%
prec.,
mm/h
press.,
hPa
HPBL,
m
7 march, sun
sun700:00−6sse91692100 1.3 984884
03:00−6sse81493100 3.1 983692
06:00−9ssw3496100 0.7 98390
09:00−11nne119583 0.8 98621
12:00−7ene71091100 0.2 989637
15:00−8ne81190100 0.4 992823
18:00−11ne81490100 0.2 997750
21:00−11nne81591100 0.3 1001598
8 march, mon
mon800:00−15nne71393100 0.1 1004450
03:00−20n61197100 0.1 1008306
06:00−22n5109799 0.0 1010264
09:00−23n599697 0.1 1012283
12:00−20n589394 0.0 1014371
15:00−18n479197 0.0 1016482
18:00−20n469599 0.0 1017154
21:00−24nne369680 0.0 1018109
9 march, tue
tue900:00−26n339644 0.0 101949
03:00−27n239522 0.0 102130
06:00−28n22940 0.0 102219
09:00−26nnw11900 0.0 102234
12:00−20wnw12802 0.0 1022153
15:00−16nw12771 0.0 1023179
18:00−17wnw23860 0.0 102220
21:00−19wnw23890 0.0 102420
10 march, wed
wed1000:00−21nw12880 0.0 102520
03:00−21w23850 0.0 102520
06:00−21w33871 0.0 102525
09:00−19w368847 0.0 1025124
12:00−14wnw3588100 0.0 1025256
15:00−11w358898 0.0 1024246
18:00−13w349245 0.0 102459
21:00−17w349223 0.0 102448
11 march, thu
thu1100:00−18w34860 0.0 102329
03:00−19wsw33820 0.0 102321
06:00−20sw33810 0.0 102222
09:00−18ssw34760 0.0 102171
12:00−12ssw47760 0.0 1018227
15:00−10s58710 0.0 1015360
18:00−12sse48860 0.0 1011170
21:00−14sse512880 0.0 1007284